Regional Weather Roundup
Issued by NWS Albany, NY

Home | Current Version | Previous Version | Graphics & Text | Print | Product List | Glossary Off
Versions: 1 2 3 4 5 6 7 8 9 10 11 12 13 14 15 16 17 18 19 20 21 22 23 24 25 26 27 28 29 30 31 32 33 34 35 36 37 38 39 40 41 42 43 44 45 46 47 48 49 50

000
ASUS41 KALY 021610
RWRALY

NEW YORK STATE HOURLY WEATHER ROUNDUP
NATIONAL WEATHER SERVICE ALBANY NY
1200 PM EDT TUE SEP 02 2014

NOTE: "FAIR" INDICATES FEW OR NO CLOUDS BELOW 12,000 FEET WITH NO
SIGNIFICANT WEATHER AND/OR NO OBSTRUCTIONS TO VISIBILITY.

NYZ032-033-038>043-046>054-057>066-NYZ062>081-021700-
EAST


CITY           SKY/WX    TMP DP  RH WIND       PRES   REMARKS
ALBANY         PTSUNNY   80  72  76 S5        29.89F
GLENS FALLS    PTSUNNY   78  71  79 S10       29.87F
POUGHKEEPSIE   MOSUNNY   86  71  60 SW6       29.89F HX  91
MONTGOMERY     MOSUNNY   87  71  58 S5        29.91F HX  93
WHITE PLAINS   MOSUNNY   86  72  62 SW6       29.91F HX  92
ISLIP          PTSUNNY   85  74  69 S8        29.90F HX  92
NEW YORK CITY  PTSUNNY   88  70  55 NW3       29.89F HX  93
CENTRAL PARK   SUNNY     88  70  55 VRB3      29.93F HX  93
$$

NYZ005>009-017-018-044>046-055-056-021700-
CENTRAL


CITY           SKY/WX    TMP DP  RH WIND       PRES   REMARKS
FULTON         PTSUNNY   81  69  67 SW7       29.86S
SYRACUSE       MOSUNNY   82  69  64 SW9       29.86F
ROME           MOSUNNY   80  69  69 SW6       29.89S
ELMIRA         PTSUNNY   83  70  64 S9        29.90F
BINGHAMTON     PTSUNNY   79  68  69 SW10      29.95S
MONTICELLO     PTSUNNY   81  70  69 W3        29.97F
$$

NYZ026>034-041>043-021700-
NORTH


CITY           SKY/WX    TMP DP  RH WIND       PRES   REMARKS
WATERTOWN      PTSUNNY   80  68  66 SW13G20   29.84F
FORT DRUM      NOT AVBL
MASSENA        MOSUNNY   80  70  71 SW16      29.80S
SARANAC LAKE   MOSUNNY   78  63  59 W13G22    29.87S
PLATTSBURGH    PTSUNNY   78  70  76 SE17      29.79F
$$

NYZ001>004-010>016-019>021-021700-
WEST


CITY           SKY/WX    TMP DP  RH WIND       PRES   REMARKS
NIAGARA FALLS  CLOUDY    77  69  76 SW17G24   29.85F
BUFFALO        CLOUDY    75  68  78 SW16G33   29.87F
DUNKIRK        CLOUDY    76  68  76 SW13G21   29.88F
JAMESTOWN      PTSUNNY   73  64  73 SW7       29.93F
WELLSVILLE     MOSUNNY   77  65  66 SW10      29.97F
ROCHESTER      PTSUNNY   81  67  62 SW13      29.85F
PENN YAN       PTSUNNY   80  68  66 SW5       29.90F
$$

             KEY
       WCI = WIND CHILL INDEX
       VSB = VISIBILITY
       HX  = HEAT INDEX
$$


USA.gov is the U.S. government's official web portal to all federal, state and local government web resources and services.